sat.trackr.live / text

‹ back to catalog

ONEWEB-0235

NORAD 48771 · 2021-045E

PAYLOAD ACTIVE UNKNOWN

§ Identity

Operator
Country
UK
Launch date
2021-05-28
Launch site
VOSTO
Launch vehicle
Mass (kg)
RCS (m²)

Purposes: comms

External: N2YO · Heavens-Above · Gunter

§ Orbital elements

Epoch: 2026-09-09T22:22:24.609792Z

Period
109.46 min
Inclination
87.8976°
Eccentricity
0.0002221
Mean motion
13.15549120 rev/d
Perigee alt
1,200.1 km
Apogee alt
1,203.5 km
Semi-major
7,579.9 km
B*
-2.4915e-4
RAAN
242.2988°
Arg perigee
75.8545°
Mean anomaly
284.2832°
Rev number
25,552

§ Raw data

ONEWEB-02351 48771U 21045E   26252.93222928 -.00000081  00000+0 -24915-3 0  99972 48771  87.8976 242.2988 0002221  75.8545 284.2832 13.15549120255529

JSON: /api/v1/satellites/48771 · /tle

For live sub-satellite position, see the globe view (requires WebGL).

§ Visibility from observer

Set your observer location to see the next 7 days of passes ≥ 10°. The values pass through the URL so the page stays shareable.

No JS? Fill the form by hand. The geolocation button needs JavaScript.